STARLINK-11633, 63317

Orbit data source: Space-Track

STARLINK-11633, 63317 is a payload satellite owned by SpaceX/Seattle (US) in LEO that was launched on Tue, 18 Mar 2025 UTC via an FALCON 9 launch vehicle from the Air Force Eastern Test Range (AFETR). Payload-class satellites include a variety of spacecraft equipped with specific instruments for various scientific and technological missions. These include communications satellites like Starlink; space stations such as the ISS; scientific satellites like the Hubble; Earth observation satellites from companies like Planet Labs, Umbra, and HawkEye 360; GPS; miniature CubeSats for education and research; and military/defense satellites.

Loading next visibility...
Identifier
63317, 2025-057L
Orbit
LEO
Country
Flag of USUS
Related business
Manufacturer
SpaceX/Seattle
Mission
Operational Commercial Communications
Bus & Motor
STARLINK V2MD, Unknown motor
Mass
960 kg wet, ~910 kg dry
Launch date (UTC)
2025-03-18 (6 months ago)
Launch vehicle
FALCON 9
Launch site
Air Force Eastern Test Range (AFETR)
Object type
Payload
Rocket body
Debris
Shape & HBR
Box + 2 Pan, 14.5 m
Radar Cross Section
36.964 m², Large (>1 m²)

Expand to show TLE details & history
Last TLE update: 10 hours ago

TLE from 10 hours ago
0 STARLINK-11633
1 63317U 25057L   25260.94398768  .00334018  00000-0  24720-2 0  9994
2 63317  42.9985 225.3841 0002063 265.0563  95.0069 15.71140206 30012
Epoch: 2025-09-17T22:39Z
TLE epoch observation values (Epoch: 2025-09-17T22:39:20.535Z)
Latitude
-0.00004°
Longitude
-111.56418°
Altitude
355.53 km
Speed
7.698 km/s
True Right ascension
15h 01m 32s
True Declination
0° 00' 00"
Sunlit
Object was in daylight at epoch
Visualization orbit readout
Latitude
Unknown
Longitude
Unknown
Altitude
Unknown
Speed
Unknown
Apparent Right ascension
Unknown
Apparent Declination
Unknown
Sunlit
N/A
Visualization observer readout
Local Sidereal Time
01:47:45
Azimuth
Unknown
Elevation
Unknown
Doppler factor
Unknown
Orbital elements
Apogee altitude
359.009 km
Perigee altitude
356.23 km
Semi-major axis
6,735.756 km
Eccentricity
0.00021
Inclination
42.9985°
RAAN
225.3841°
Arg. of periapsis
265.0563°
True anomaly
95.03045°
Mean anomaly
95.0069°
Eccentric anomaly
95.01867°
Mean motion
3.92612 °/min
Orbital period
91.69 mins
BSTAR
0.002472
Loading maneuver chart data...
Computing Atmospheric mass density...
Loading historical data...
Loading historical data...
Loading historical data...
Loading historical data...
Loading historical data...
Loading historical data...
Loading historical data...

Documentation

Showing up to 5 results
|